567  
ASUS42 KKEY 211610  
RWRKEY  
 
FLORIDA KEYS REGIONAL WEATHER ROUNDUP  
NATIONAL WEATHER SERVICE KEY WEST FLORIDA  
1200 PM EDT THU OCT 21 2021  
   
..FLORIDA KEYS
 
 
 
CITY SKY/WX TMP DP RH WIND PRES REMARKS
 
KEY WEST PTSUNNY 85 74 69 E17G26 30.09F HX 92  
BOCA CHICA NAS FAIR 89 74 60 E15 30.09F HX 98  
MARATHON PTSUNNY 84 72 67 E15G28 30.10S  
   
..SOUTH FLORIDA
 
 
 
CITY SKY/WX TMP DP RH WIND PRES REMARKS
 
HOMESTEAD FAIR 84 70 62 NE14 30.11F  
WEST KENDALL FAIR 86 70 58 E16 30.12F HX 90  
MIAMI FAIR 83 69 62 E13G21 30.13F  
OPA LOCKA FAIR 85 67 54 E17G24 30.13F  
PEMBROKE PINES FAIR 84 67 56 E13 30.14F  
FT LAUDERDALE PTSUNNY 85 75 72 E14 30.12F HX 93  
FT LAUD EXEC FAIR 86 69 56 NE14G23 30.13F HX 90  
POMPANO BEACH FAIR 85 67 54 E12 30.14S  
BOCA RATON MOSUNNY 86 70 58 E14 30.15S HX 90  
WEST PALM BCH FAIR 85 69 58 E14 30.15S  
   
..SOUTHWEST FLORIDA
 
 
 
CITY SKY/WX TMP DP RH WIND PRES REMARKS
 
MARCO ISLAND FAIR 87 68 52 E10 30.14F HX 90  
NAPLES FAIR 85 69 58 E13 30.12F  
FT MYERS-SW AP FAIR 84 66 54 SE12 30.14F  
FORT MYERS FAIR 84 67 56 E10 30.13F  
   
..ADJACENT COASTAL WATERS
 
 
 
STATION/POSITION TIME SKY/WX TEMP WIND PRES WAVE
 
AIR SEA DIR/SP/G HT/PER  
(UTC) (F) (DEG/KT/KT) (MB) (FT/S)  
PULASKI SHOAL LT NOT AVBL  
SAND KEY 1550 81 60/ 21/ 25 1019.0F  
SOMBRERO KEY 1550 82 80/ 21/ 25 1019.4R  
LONG KEY 1550 81 1019.1F  
FOWEY ROCKS 1500 81 82 80/ 17/ 18 1020.6R  
SATAN SHL BUOY 1530 84 N/A 3/ 7  
LOOP CURR BUOY 1500 82 83 80/ 16/ 19 1020.0S  
PULLEY RDG BUOY 1556 83 N/A 4/ 6  
   
..INTERNATIONAL WEATHER
 
 
 
CITY SKY/WX TMP DP RH WIND PRES REMARKS
 
NASSAU LGT RAIN 82 73 74 E15 30.12F  
HAVANA PTSUNNY 86 73 66 E12 30.06S HX 93  
VARADERO PTSUNNY 84 75 74 E12 30.06F HX 92  
CANCUN CLOUDY 86 75 70 E8 30.07S HX 95  
COZUMEL CLOUDY 84 77 79 E5 30.04F HX 94  
KINGSTON MOSUNNY 90 75 62 SW8 29.94F HX 100  
BELIZE CITY TSTM 75 75 100 NW2 30.02F  
 

 
 
 
CLICK HERE TO GO TO PREVIOUS BULLETINS.

The Nexlab FL Page Main Text Page